Regional Weather Roundup
Issued by NWS

Home | Current Version | Previous Version | Text Only | Print | Product List | Glossary Off
Versions: 1 2 3 4 5 6 7 8 9 10 11 12 13 14 15 16 17 18 19 20 21 22 23 24 25 26 27 28 29 30 31 32 33 34 35 36 37 38 39 40 41 42 43 44 45 46 47 48 49 50

000
ASUS43 KDMX 022007
RWRIA

WEATHER ROUNDUP FOR IOWA
NATIONAL WEATHER SERVICE DES MOINES IA
300 PM CDT TUE SEP 02 2014

NOTE: "FAIR" INDICATES FEW OR NO CLOUDS BELOW 12,000 FEET WITH NO
SIGNIFICANT WEATHER AND/OR OBSTRUCTIONS TO VISIBILITY.

* - THESE STATIONS ARE NOT NWS STATIONS...THUS NOT UNDER NWS
QUALITY CONTROL.  THEY ALSO DO NOT REPORT WEATHER SUCH
AS PRECIPITATION OR FOG.

IAZ001>003-012>014-020>022-031>034-043>046-022100-
   NORTHWEST IOWA

CITY           SKY/WX    TMP DP  RH WIND       PRES   REMARKS
CARROLL *      SUNNY     75  59  57 SW7G13    29.99S
CHEROKEE *     SUNNY     75  61  60 SW12      29.97S
DENISON *      SUNNY     75  61  60 S8G16     29.98S
LE MARS *      SUNNY     77  59  53 SW12      29.96F
ORANGE CITY *  SUNNY     75  55  50 SW9G17    29.97S
SHELDON *      MOSUNNY   75  61  60 S10       29.95S
SIOUX CITY     SUNNY     77  59  53 SW10      29.97S
SPENCER        SUNNY     76  57  51 W13       29.96S
STORM LAKE *   SUNNY     75  64  69 W7G13     29.98S
$$

IAZ055>058-069>071-079>083-090>094-022100-
   SOUTHWEST IOWA

CITY           SKY/WX    TMP DP  RH WIND       PRES   REMARKS
ATLANTIC *     SUNNY     77  59  53 SW9       29.99F
AUDUBON *      SUNNY     79  63  57 SW6       30.01F HX  80
CLARINDA *     SUNNY     81  61  50 NW8G14    30.00F HX  81
COUNCIL BLFS * SUNNY     79  59  50 W8        29.99F HX  80
CRESTON *      SUNNY     77  59  53 W8        30.00F
HARLAN  *      SUNNY     75  61  60 SW8       30.03F
LAMONI         SUNNY     79  60  52 W9        30.00R HX  80
RED OAK *      SUNNY     79  59  50 W8        29.99F HX  80
SHENANDOAH *   SUNNY     79  61  53 W6        30.00F HX  80
$$

IAZ047>049-059>061-072>074-084-022100-
   CENTRAL IOWA

CITY           SKY/WX    TMP DP  RH WIND       PRES   REMARKS
AMES           SUNNY     78  58  49 W8        29.97S
ANKENY *       SUNNY     77  59  53 SW7       29.97F
CHARITON *     SUNNY     79  59  50 W10G17    29.98F HX  80
DES MOINES     MOSUNNY   79  57  46 W10       29.96F HX  80
GRINNELL*      MOSUNNY   77  59  53 SW10      29.98S
KNOXVILLE *    MOSUNNY   77  61  57 W12       29.97S
MARSHALLTOWN   SUNNY     77  58  51 W6        29.96S
PELLA *        SUNNY     79  63  57 W7        29.99S HX  80
PERRY *          N/A     77  57  50 SW6       29.99S
$$

IAZ004>006-015-016-023>025-035-036-022100-
   NORTH CENTRAL IOWA

CITY           SKY/WX    TMP DP  RH WIND       PRES   REMARKS
ALGONA *       SUNNY     75  59  57 SW12G18   29.96S
CLARION *      SUNNY     77  57  50 SW12G17   29.97S
ESTHERVILLE    SUNNY     75  57  53 SW12      29.95S
FORT DODGE *   MOSUNNY   77  59  53 SW10      29.98S
MASON CITY     MOSUNNY   77  56  48 W14       29.96S
FOREST CITY *  SUNNY     75  57  53 W9        29.96S
IOWA FALLS *     N/A     77  57  50 W10       29.99S
$$

IAZ007>011-017>019-026>030-037>042-050>054-066-022100-
   NORTHEAST IOWA

CITY           SKY/WX    TMP DP  RH WIND       PRES   REMARKS
CEDAR RAPIDS   MOSUNNY   76  60  57 NW9       29.94S
CHARLES CITY * MOSUNNY   77  59  53 W10G18    29.96R
CLINTON *      MOSUNNY   79  61  53 W10       29.96S HX  80
DECORAH *      MOSUNNY   75  57  53 VRB6G13   29.93S
DUBUQUE        SUNNY     76  58  53 W10       29.95R
MONTICELLO *   SUNNY     77  59  53 NW13      29.94S
OELWEIN *      SUNNY     75  59  57 W10       29.96S
WATERLOO       SUNNY     78  57  48 W13G18    29.94S
$$

IAZ064-065-067-068-078-022100-
   EAST CENTRAL IOWA

CITY           SKY/WX    TMP DP  RH WIND       PRES   REMARKS
DAVENPORT      MOSUNNY   78  63  59 W7        29.94F HX  80
IOWA CITY      MOSUNNY   78  61  55 W16       29.95S HX  80
MT. PLEASANT * MOSUNNY   82  59  44 W9        29.96S HX  82
MUSCATINE *    MOSUNNY   82  61  47 W14G21    29.94F HX  83
QUAD CITIES    MOSUNNY   82  61  48 W8G18     29.93F HX  83
$$

IAZ062-063-075>077-085>089-095>099-022100-
   SOUTHEAST IOWA

CITY           SKY/WX    TMP DP  RH WIND       PRES   REMARKS
BURLINGTON     MOSUNNY   81  64  56 W9        29.96S HX  82
FAIRFIELD *    MOSUNNY   79  63  57 W9G15     29.97S HX  80
FORT MADISON * MOSUNNY   82  63  51 W10       29.97S HX  83
KEOKUK *       MOSUNNY   81  64  57 W10       29.96S HX  82
OSKALOOSA *      N/A     77  61  57 W12       29.98S
CENTERVILLE *  SUNNY     81  64  57 W9        30.00S HX  82
OTTUMWA        SUNNY     78  60  53 SW10      29.98R
WASHINGTON *   MOSUNNY   79  64  61 W7G14     29.96S HX  81
$$

ABBREVIATIONS USED IN REMARKS
   TC - TEMPERATURES IN CELSIUS
  WCI - WIND CHILL INDEX
   HX - HEAT INDEX
  VSB - VISIBILITY
$$




USA.gov is the U.S. government's official web portal to all federal, state and local government web resources and services.